{"data":{"norad_id":62577,"intl_designator":"2025-007C","name":"CENTISPACE-1 S8","alt_names":[],"object_type":"PAYLOAD","status":"ACTIVE","operator":null,"country":"PRC","launch_date":"2025-01-13","launch_site_code":"YSLA","launch_vehicle":null,"mission":null,"orbit_class":"UNKNOWN","rcs_meters":null,"size_class":null,"mass_kg":null,"dimensions":null,"purposes":[],"wikipedia_slug":null,"has_3d_model":false,"image_url":null,"decayed_at":null,"tle_current":{"epoch":"2026-05-25T03:00:38.174112Z","epoch_age_seconds":71182,"freshness":"FRESH","line1":"1 62577U 25007C   26145.12544183 -.00000044  00000+0  91812-4 0  9990","line2":"2 62577  54.9863  12.2173 0016305  77.7690 282.5091 13.80629576 71542","mean_motion":13.80629576,"eccentricity":0.0016305,"inclination_deg":54.9863,"raan_deg":12.2173,"arg_perigee_deg":77.769,"mean_anomaly_deg":282.5091,"bstar":9.1812e-5,"rev_number":7154,"period_min":104.30024280459,"perigee_km":949.68702132741,"apogee_km":973.62208157669,"semimajor_km":7339.7915514521,"source":"CELESTRAK","updated_at":"2026-05-25T13:38:03.090054Z"}}}